Flag for Kazakhstan Weather past 2 weeks in Shymkent, Kazakhstan

Now
54 °F

Passing clouds.


Feels Like: 53 °F
Forecast: 48 / 71 °F
Wind: 3 mph from Southeast

Location: Shymkent Airport


UV Index: 5 (Moderate)

Visibility: N/A


Pressure: 30.12 "Hg

Humidity: 67%

Dew point: 43 °F

Location of ShymkentLocation

Historic Weather in Shymkent

°F

Shymkent temperature yesterday

Maximum temperature yesterday: 68 °F (at 2:30 PM)
Minimum temperature yesterday: 37 °F (at 5:30 AM)
Average temperature yesterday: 56 °F

Past Weeks' High & Low Weather Summary

 TemperatureHumidityPressure
High75 °F (Apr 9, 4:30 PM)100% (Apr 4, 7:30 PM)30.51 "Hg (Apr 4, 7:30 PM)
Low32 °F (Apr 7, 6:30 AM)15% (Apr 9, 5:00 PM)29.74 "Hg (Apr 10, 5:00 AM)
Average52 °F63%30.13 "Hg
* Reported Apr 3 9:00 PM — Apr 18 9:00 PM, Shymkent, Weather by CustomWeather, © 2014

Note: Actual official high and low records may vary slightly from our data, if they occured in-between our weather recording intervals... More about our weather records

Advertising

Historic Weather Conditions — Data for Previous 24 hours

 ConditionsComfort  
Time TempWeatherWind HumidityBarometerVisibility
9:00 PM
Apr 18
54 °FOvercast.1 mph67%30.12 "HgN/A
8:30 PM57 °FMostly cloudy.1 mph59%30.12 "HgN/A
8:00 PM59 °FMostly cloudy.8 mph59%30.09 "HgN/A
7:00 PM61 °FMostly cloudy.10 mph48%30.09 "HgN/A
6:30 PM64 °FMostly cloudy.13 mph32%30.09 "HgN/A
6:00 PM63 °FThundershowers. Partly sunny.29 mph30%30.12 "HgN/A
5:30 PM59 °FThundershowers. Partly sunny.29 mph51%30.12 "HgN/A
5:00 PM63 °FThundershowers. Broken clouds.15 mph45%30.12 "HgN/A
4:30 PM70 °FThundershowers. Broken clouds.6 mph38%30.09 "HgN/A
4:00 PM70 °FSunny.6 mph33%30.09 "Hg10 mi
3:30 PM70 °FSunny.13 mph33%30.09 "Hg10 mi
3:00 PM70 °FSunny.6 mph35%30.09 "Hg10 mi
2:30 PM70 °FSunny.13 mph35%30.09 "Hg10 mi
2:00 PM70 °FSunny.13 mph38%30.09 "Hg10 mi
1:30 PM68 °FSunny.8 mph35%30.09 "Hg10 mi
1:00 PM68 °FPassing clouds.6 mph38%30.09 "HgN/A
12:30 PM68 °FSunny.8 mph35%30.09 "Hg10 mi
12:00 PM68 °FPassing clouds.3 mph33%30.12 "HgN/A
11:30 AM66 °FPassing clouds.6 mph49%30.12 "HgN/A
11:00 AM66 °FPassing clouds.6 mph46%30.09 "HgN/A
10:30 AM63 °FPassing clouds.3 mph52%30.09 "HgN/A
10:00 AM61 °FPassing clouds.3 mph52%30.09 "HgN/A
9:30 AM59 °FPassing clouds.3 mph55%30.09 "HgN/A
9:00 AM57 °FSunny.1 mph59%30.09 "Hg10 mi
8:30 AM54 °FPassing clouds.3 mph72%30.09 "HgN/A
8:00 AM52 °FSunny.6 mph67%30.07 "Hg10 mi
7:30 AM46 °FClear.No wind76%30.09 "Hg5 mi
7:00 AM46 °FClear.3 mph76%30.07 "Hg5 mi
6:30 AM45 °FClear.8 mph81%30.07 "Hg5 mi
6:00 AM43 °FClear.8 mph87%30.07 "Hg5 mi
5:30 AM43 °FClear.6 mph81%30.07 "Hg5 mi
5:00 AM45 °FClear.6 mph81%30.07 "Hg10 mi
4:30 AM46 °FClear.1 mph76%30.07 "Hg10 mi
4:00 AM45 °FClear.6 mph81%30.07 "Hg10 mi
3:30 AM46 °FClear.6 mph76%30.07 "Hg10 mi
3:00 AM50 °FClear.3 mph71%30.07 "Hg10 mi
2:30 AM48 °FClear.6 mph71%30.07 "Hg10 mi
2:00 AM50 °FClear.1 mph67%30.07 "Hg10 mi
1:30 AM52 °FClear.6 mph62%30.07 "Hg10 mi
1:00 AM50 °FClear.6 mph62%30.07 "Hg10 mi
12:30 AM54 °FClear.6 mph54%30.07 "Hg10 mi
12:00 AM54 °FPassing clouds.6 mph51%30.07 "HgN/A
11:00 PM
Apr 17
55 °FClear.13 mph51%30.07 "Hg10 mi
10:00 PM57 °FClear.13 mph51%30.07 "Hg10 mi
Weather by CustomWeather, © 2014

See weather overview